Wind_Speed
18 17 17 18 18 17 17 18 18 18 17 16 16 16 17 18 20 22 22 21 20 20 19 19 18 18 18 17 17 17 18 17 17 17 17 18 18 18 18 18 18 18
17 16 16 18 17 17 17 18 18 18 17 17 16 17 18 19 21 22 22 22 21 20 20 19 19 18 18 18 18 18 18 18 18 18 18 19 19 18 19 19 18 18
15 15 16 17 17 17 18 17 18 18 17 17 17 18 19 21 21 21 21 21 21 21 20 20 19 19 19 19 19 19 19 19 19 18 18 19 18 18 18 18 18 18
16 16 17 17 17 17 17 18 18 18 18 18 18 19 20 21 21 20 20 20 20 21 21 20 20 20 20 20 20 20 20 20 20 19 19 19 18 18 19 18 18 19
17 17 17 17 17 17 17 18 19 18 18 18 19 20 21 21 21 20 21 21 21 21 21 21 21 21 21 21 21 21 20 20 19 19 19 20 19 19 19 18 19 19
18 18 17 17 17 17 18 18 18 18 18 19 19 20 21 21 21 21 22 22 22 22 23 23 22 22 22 22 22 22 21 21 21 20 21 22 21 20 19 19 20 20
19 18 17 17 17 18 18 18 18 18 18 19 20 21 21 22 23 23 24 24 25 25 25 25 24 24 24 23 24 24 23 22 22 22 22 22 22 21 21 20 21 22
19 18 17 17 18 18 18 18 18 18 19 20 21 21 21 23 24 25 25 25 26 26 26 26 26 26 26 25 26 27 25 23 23 23 23 23 23 23 22 21 21 23
19 18 18 18 19 18 18 18 19 19 20 21 22 22 22 24 25 26 26 26 27 27 26 26 27 26 26 26 26 26 25 25 24 24 25 25 25 25 24 23 23 25
19 18 18 19 19 19 19 20 20 21 22 22 23 24 24 25 26 26 27 27 27 27 26 26 27 27 26 25 25 24 25 26 25 25 25 26 25 25 24 23 24 24
18 18 19 19 19 19 19 20 21 23 24 24 25 25 26 26 26 26 26 26 26 26 26 26 26 26 26 25 24 25 25 26 26 25 25 25 25 24 23 23 22 24
18 18 19 19 19 19 19 21 23 24 24 25 25 26 26 25 25 25 25 25 25 25 25 25 25 25 25 24 24 25 25 26 26 25 25 25 24 24 24 23 23 24
19 19 19 19 19 20 22 23 24 24 24 25 25 25 26 26 25 24 24 23 24 24 24 24 24 24 24 24 24 24 25 25 24 23 23 24 24 24 24 25 26 26
19 19 18 19 20 22 24 24 24 24 24 25 25 24 24 24 23 22 22 21 22 23 23 22 22 22 22 22 23 24 25 25 26 26 27 30 32 33 32 32 33 33
19 19 19 20 22 24 25 24 24 25 25 25 24 22 21 20 20 20 21 22 23 23 22 22 22 23 23 23 25 28 29 30 33 35 37 39 41 42 42 41 41 41
19 19 21 22 23 24 24 24 25 25 24 23 22 21 20 20 21 21 22 23 25 25 25 25 25 25 27 29 32 35 34 34 36 36 36 36 36 37 38 37 37 38
20 21 22 23 24 23 23 23 23 21 21 20 19 21 22 21 22 24 25 24 25 26 27 27 28 28 31 35 38 39 38 37 36 35 34 33 32 31 31 31 31 31
20 22 24 23 23 22 21 20 20 19 20 21 22 24 25 24 25 26 26 25 25 27 28 28 29 31 33 36 39 39 39 38 36 32 31 31 30 29 30 30 30 30
21 23 24 22 21 20 19 19 19 20 22 23 25 26 26 26 26 26 27 26 26 28 29 29 31 34 35 36 39 39 38 39 36 32 30 30 31 30 31 31 31 32
23 23 22 20 19 19 19 19 21 23 24 24 25 25 25 25 25 25 26 27 27 29 30 31 34 37 36 36 39 39 38 38 36 32 30 30 31 31 31 32 33 34
23 22 19 18 19 19 19 22 24 25 26 25 24 24 24 24 23 24 25 26 28 29 30 32 36 37 35 37 39 38 37 37 34 31 30 30 31 31 32 33 35 36
21 19 18 18 19 20 22 25 25 26 26 25 24 25 25 23 23 23 24 26 27 27 28 33 38 37 35 38 40 39 39 37 32 30 29 29 31 32 33 34 35 37
19 18 19 20 20 22 25 26 25 26 26 24 24 26 25 24 24 24 24 25 26 27 28 32 38 39 37 39 41 40 40 37 31 29 29 29 31 33 33 34 35 37
18 18 20 21 22 23 24 26 25 26 26 25 24 25 27 26 25 23 23 23 25 29 30 32 36 40 39 40 41 40 39 36 30 27 28 29 31 33 33 34 37 39
17 18 20 22 23 24 24 26 26 25 26 25 24 25 26 25 23 21 23 26 29 32 33 32 35 40 40 39 40 39 38 35 29 26 28 30 31 32 34 34 35 37
18 20 22 23 24 25 25 26 25 24 25 25 25 25 24 24 25 25 27 32 33 32 33 33 33 37 39 39 39 39 38 36 31 27 28 30 31 32 33 33 33 34
Wind_Direction
334 333 333 332 329 325 324 324 321 316 312 311 311 312 314 314 315 317 316 315 313 311 310 309 306 304 301 300 299 296 292 290 287 285 283 281 281 280 278 276 273 272
330 329 328 327 324 320 319 319 317 313 307 307 308 309 311 312 313 313 313 312 311 309 309 308 305 302 300 299 298 295 292 289 286 285 282 279 279 277 275 275 274 271
329 326 324 322 319 317 315 314 314 310 304 304 305 307 309 310 310 310 309 309 308 307 308 306 304 302 300 298 297 294 291 288 287 286 283 280 278 275 274 275 273 271
328 324 321 319 315 314 312 311 310 308 305 303 303 305 308 308 308 307 307 307 306 306 306 304 303 301 300 298 296 293 290 287 286 286 283 280 278 277 276 276 273 272
325 323 320 317 314 313 311 309 308 307 305 304 305 307 308 307 307 307 306 306 305 304 303 302 302 300 299 298 295 292 290 288 286 285 283 281 280 278 277 276 273 272
324 322 319 316 315 313 311 309 308 307 306 306 307 308 307 307 307 306 306 306 305 303 302 301 300 298 297 296 294 291 288 286 285 284 282 280 280 278 276 275 273 272
323 321 319 317 316 314 312 310 308 308 308 307 307 307 308 307 306 306 306 306 305 303 302 300 299 298 297 296 294 291 287 285 284 282 280 279 279 278 276 273 272 272
322 320 318 317 316 314 312 310 309 309 308 308 307 307 308 308 307 306 305 304 303 301 299 299 298 297 296 295 293 290 286 284 283 282 280 279 278 277 276 274 273 274
320 318 317 317 316 314 312 311 310 310 309 309 308 308 308 308 306 306 305 303 301 298 297 297 296 295 294 291 288 285 283 281 281 280 280 279 277 276 276 274 274 274
317 317 316 316 314 312 312 312 311 312 311 310 309 308 308 308 306 305 304 302 300 298 296 295 295 294 292 288 285 282 281 280 279 277 276 275 274 273 273 272 272 271
315 315 314 313 312 311 310 312 313 313 311 309 308 306 305 305 304 303 302 299 297 296 295 293 293 292 289 286 284 282 281 279 277 275 273 272 270 270 270 269 267 267
314 314 314 312 310 310 312 313 313 311 309 308 306 305 303 302 301 300 299 296 294 293 292 291 291 289 287 284 283 282 280 278 276 274 272 271 270 269 269 266 264 264
314 313 313 312 311 312 313 313 312 309 308 307 305 303 302 301 298 297 296 294 293 292 291 290 289 287 284 283 282 280 278 276 275 272 272 271 269 267 265 263 262 261
312 312 311 311 313 313 312 311 310 308 307 305 303 301 299 298 296 294 294 294 292 291 290 289 288 286 283 281 280 278 275 274 273 273 273 273 273 273 270 267 266 264
311 311 311 312 314 313 311 310 309 308 307 304 302 298 295 295 293 293 293 292 291 291 289 288 286 284 282 280 279 278 276 275 276 276 276 275 276 277 276 273 272 270
310 312 312 313 312 311 310 309 308 307 305 302 300 297 295 294 293 293 291 290 292 292 290 289 286 283 283 283 282 281 280 280 281 280 279 277 275 275 275 273 272 269
311 312 312 311 309 308 307 305 304 304 301 300 299 298 298 296 293 293 292 290 291 290 290 289 286 285 287 288 288 287 285 284 283 282 281 278 275 275 274 272 271 268
311 313 312 309 306 305 303 302 301 300 300 300 299 300 301 298 294 292 292 291 290 288 289 290 289 290 291 291 292 294 293 290 287 284 283 280 278 276 274 273 272 270
313 313 310 306 304 303 303 302 301 299 300 300 299 301 300 296 294 293 293 293 291 290 290 289 294 299 298 295 296 297 297 297 295 291 288 284 281 277 274 272 271 269
313 311 307 304 304 304 303 303 302 301 303 302 301 300 297 294 294 294 294 293 292 294 292 291 298 303 301 299 300 300 302 304 303 298 292 286 281 276 272 270 268 266
310 307 304 304 305 305 303 304 303 304 305 304 302 300 296 294 295 294 294 293 292 294 293 294 302 305 302 302 305 305 307 309 306 300 294 288 283 277 272 269 266 263
306 304 303 304 305 305 304 304 305 304 305 305 302 300 297 295 295 294 294 293 293 293 291 296 305 307 305 307 310 309 310 310 305 299 293 286 283 280 275 272 268 263
302 302 302 302 304 305 304 304 305 305 306 305 301 300 299 298 297 296 295 293 293 294 293 295 304 308 308 310 312 311 311 309 304 299 294 287 285 283 279 276 272 267
300 300 300 300 302 303 302 303 303 303 304 304 300 298 298 298 297 296 296 294 293 296 297 295 300 307 311 313 315 317 314 309 303 299 295 290 288 287 282 279 275 271
299 299 299 300 300 301 302 302 301 301 302 302 300 297 297 297 297 296 296 297 297 300 302 300 301 308 313 315 318 319 317 312 306 300 297 294 292 290 288 285 283 281
299 300 300 299 299 300 302 301 300 300 300 299 298 298 296 296 298 297 297 300 302 303 305 305 304 308 313 316 317 318 318 315 310 305 301 298 296 295 294 295 297 295
Height
873 871 870 867 865 864 862 860 858 856 854 852 850 848 846 844 842 840 838 836 834 831 829 827 825 824 822 820 818 816 814 812 810 809 807 805 803 802 800 798 797 795
873 871 869 867 865 863 861 859 857 855 853 851 849 847 845 843 840 839 836 833 831 829 827 825 823 821 819 817 816 814 811 809 807 806 804 802 800 798 797 795 794 792
872 870 868 866 864 862 860 858 856 854 852 850 848 846 844 841 839 837 835 832 829 827 825 823 821 819 817 815 813 810 808 806 804 803 801 798 797 795 793 792 790 789
871 869 867 865 863 861 859 857 855 853 851 848 847 845 842 840 837 835 832 830 828 825 823 821 818 816 814 812 810 807 805 803 801 799 797 795 794 792 790 789 787 785
869 867 866 864 861 860 857 855 853 851 849 847 845 843 840 838 835 833 830 828 826 823 821 818 816 814 812 809 807 805 802 800 798 797 794 792 790 789 787 785 783 782
868 866 864 862 860 858 856 854 852 849 847 845 843 841 839 836 833 831 828 826 824 821 819 816 814 811 809 807 804 802 800 797 795 794 791 789 787 785 784 782 780 778
867 864 862 861 858 856 854 852 850 848 845 843 841 839 836 834 831 829 826 824 822 819 817 814 812 809 807 805 802 799 797 794 792 790 788 785 783 782 780 779 776 775
865 863 861 859 856 854 852 850 848 846 844 841 839 836 834 832 830 827 824 822 819 816 814 812 809 807 804 802 799 796 794 791 789 787 784 782 780 778 776 775 773 771
863 861 859 857 855 852 850 848 846 844 842 839 837 834 832 830 827 825 822 819 816 813 811 808 806 803 801 798 796 793 790 787 785 783 781 778 776 774 772 771 769 767
861 859 857 855 853 850 848 846 844 842 840 838 835 832 830 827 825 822 819 816 813 810 807 805 802 800 797 794 792 789 786 783 781 779 777 774 772 770 768 767 765 763
860 857 855 853 851 849 847 845 842 840 838 836 833 830 827 825 822 819 816 813 810 807 804 801 799 796 793 790 788 785 782 780 777 775 772 770 767 765 764 762 760 758
858 856 853 851 849 847 845 843 841 839 836 834 831 828 825 822 819 816 813 810 806 804 801 797 795 792 789 786 784 781 778 775 773 770 767 765 763 761 759 758 756 753
856 853 851 849 847 845 843 841 839 836 834 831 828 825 822 819 816 813 810 807 803 800 797 794 791 788 785 782 779 777 774 771 768 765 763 760 758 756 754 752 750 748
854 851 849 847 845 843 841 838 836 833 831 828 825 822 819 816 813 809 806 803 800 797 794 791 787 784 781 778 774 771 769 766 763 760 757 754 752 749 747 745 743 741
852 849 847 845 843 841 838 836 833 831 828 825 822 819 815 812 809 806 803 799 796 793 790 787 783 779 776 773 769 766 763 760 757 753 750 747 744 741 739 737 735 733
850 848 845 843 841 838 836 833 830 828 825 821 818 815 812 809 805 802 799 795 792 789 785 782 779 775 771 768 764 761 759 756 752 749 746 742 738 735 733 730 728 726
847 845 843 841 838 835 833 830 827 824 821 817 814 811 807 804 801 798 795 791 788 784 781 778 774 770 766 762 758 755 754 752 748 745 741 738 734 731 728 725 723 720
845 843 841 838 835 832 830 827 823 821 817 814 810 807 803 800 797 793 790 787 784 780 776 773 769 765 762 757 752 749 747 745 743 740 736 732 729 726 723 720 717 714
843 841 838 835 832 829 826 824 820 817 814 810 807 803 799 796 792 789 786 783 780 776 771 768 764 760 756 751 747 743 740 738 737 735 731 727 724 721 718 715 712 708
840 838 835 832 829 826 823 820 817 814 810 807 803 799 796 792 789 786 782 779 776 772 767 763 759 755 751 746 742 739 735 733 731 729 725 721 718 715 712 709 706 703
838 835 832 829 827 824 821 817 814 811 807 804 800 796 792 789 785 782 778 775 772 768 763 758 754 750 746 741 737 734 731 728 726 723 720 715 712 708 705 702 698 695
835 832 829 827 824 821 818 814 811 808 804 801 797 792 789 785 782 779 775 771 767 764 760 754 749 746 742 736 732 728 726 724 722 718 714 710 706 702 699 695 691 687
833 830 827 824 822 819 815 811 808 805 801 798 794 789 785 782 778 775 771 767 764 760 756 751 745 741 737 731 727 723 721 720 717 713 709 705 700 696 692 688 683 679
830 827 824 821 819 816 812 809 806 802 799 795 791 786 782 778 775 771 768 764 760 756 753 748 741 736 732 727 721 718 717 715 712 708 704 699 694 690 685 680 675 670
827 824 822 819 816 813 810 806 803 799 796 792 789 784 779 775 772 768 764 760 756 752 748 744 738 732 727 722 717 714 712 711 708 704 699 694 689 684 678 673 668 662
824 822 819 816 813 809 807 803 799 796 793 789 786 782 777 773 769 765 760 755 751 747 743 739 735 728 723 718 713 710 708 706 704 700 695 690 684 678 672 667 662 657